Carmi, IL

11:55 PM CDT on June 27, 2017 (GMT -0500)
Carmi Municipal

Weather History for KCUL - March, 2013

Change the Weather History Date:

Sunday, March 10, 2013

  Actual Average (KEHR) Record (KEHR)
Temperature  
Mean Temperature 59 °F -  
Max Temperature 67 °F 56 °F 82 °F (1990)
Min Temperature 51 °F 35 °F 13 °F (1932)
Degree Days  
Heating Degree Days 6    
Growing Degree Days 9 (Base 50)    
Moisture  
Dew Point 46 °F    
Average Humidity 68    
Maximum Humidity 97    
Minimum Humidity 46    
Precipitation  
Precipitation 0.50 in - - ()
Sea Level Pressure  
Sea Level Pressure 29.81 in    
Wind  
Wind Speed 15 mph (SSE)    
Max Wind Speed 30 mph    
Max Gust Speed 38 mph    
Visibility 9 miles    
Events Rain    
Averages and records for this station are not official NWS values.
T = Trace of Precipitation, MM = Missing Value Source: NWS Daily Summary

Daily Weather History Graph

Daily Weather History Graph

Search for Another Location

Airport or City:

Trip Planner

Search our weather history database for the weather conditions in past years. The results will help you decide how hot, cold, wet, or windy it might be!

Date:

Astronomy

Mar. 10, 2013 Rise Set
Actual Time 7:10 AM CDT 6:55 PM CDT
Civil Twilight 6:44 AM CDT 7:21 PM CDT
Nautical Twilight 6:14 AM CDT 7:51 PM CDT
Astronomical Twilight 5:43 AM CDT 8:22 PM CDT
Moon 6:10 AM CDT (3/10) 6:02 PM CDT (3/10)
Length of Visible Light 12h 36m
Length of Day
11h 44m
Waning Crescent, 2% of the Moon is Illuminated
Mar 10
Waning Crescent
Mar 11
New
Mar 19
First Quarter
Mar 27
Full
Apr 2
Last Quarter

Hourly Weather History & Observations

Time (CDT) Temp. Dew Point Humidity Pressure Visibility Wind Dir Wind Speed Gust Speed Precip Events Conditions
12:15 AM 54.0 °F 39.2 °F 57% 29.92 in 10.0 mi SSE 13.8 mph - N/A   Clear
12:35 AM 53.8 °F 39.2 °F 58% 29.92 in 10.0 mi SSE 13.8 mph - N/A   Clear
12:55 AM 53.6 °F 39.2 °F 58% 29.92 in 10.0 mi SSE 12.7 mph - N/A   Clear
1:15 AM 54.5 °F 39.2 °F 56% 29.91 in 10.0 mi SSE 16.1 mph - N/A   Clear
1:35 AM 55.4 °F 38.8 °F 54% 29.91 in 10.0 mi SSE 16.1 mph - N/A   Scattered Clouds
1:55 AM 55.4 °F 39.2 °F 54% 29.90 in 10.0 mi SSE 19.6 mph - N/A   Mostly Cloudy
3:15 AM 54.5 °F 40.1 °F 58% 29.89 in 10.0 mi SSE 16.1 mph - N/A   Mostly Cloudy
3:35 AM 54.5 °F 40.1 °F 58% 29.89 in 10.0 mi SSE 15.0 mph - N/A   Overcast
3:55 AM 53.6 °F 40.3 °F 61% 29.88 in 10.0 mi SSE 16.1 mph - N/A   Mostly Cloudy
4:15 AM 53.6 °F 41.0 °F 62% 29.88 in 10.0 mi SSE 15.0 mph - N/A   Mostly Cloudy
4:35 AM 53.2 °F 41.0 °F 63% 29.88 in 10.0 mi SSE 12.7 mph - N/A   Mostly Cloudy
4:55 AM 54.0 °F 41.0 °F 62% 29.88 in 10.0 mi SSE 13.8 mph - N/A Rain Light Rain
5:15 AM 55.9 °F 40.6 °F 56% 29.89 in 10.0 mi SSE 15.0 mph - N/A   Scattered Clouds
5:35 AM 55.4 °F 41.2 °F 59% 29.88 in 10.0 mi SSE 13.8 mph - N/A   Clear
5:55 AM 55.2 °F 41.4 °F 60% 29.87 in 10.0 mi SSE 15.0 mph - N/A   Clear
6:15 AM 55.4 °F 41.4 °F 59% 29.87 in 10.0 mi SSE 13.8 mph - N/A   Clear
6:35 AM 56.1 °F 41.2 °F 57% 29.88 in 10.0 mi SSE 12.7 mph - N/A   Clear
7:15 AM 55.4 °F 41.9 °F 60% 29.88 in 10.0 mi SSE 11.5 mph - N/A   Clear
7:35 AM 55.4 °F 42.8 °F 63% 29.88 in 10.0 mi SSE 12.7 mph - N/A   Clear
7:55 AM 55.4 °F 43.3 °F 64% 29.88 in 10.0 mi SSE 12.7 mph - N/A   Clear
8:15 AM 54.5 °F 43.7 °F 67% 29.88 in 10.0 mi SSE 12.7 mph - N/A   Clear
8:35 AM 54.9 °F 44.1 °F 67% 29.89 in 10.0 mi SSE 10.4 mph - N/A   Scattered Clouds
8:55 AM 56.1 °F 44.6 °F 65% 29.88 in 10.0 mi SSE 11.5 mph - N/A   Scattered Clouds
9:15 AM 57.2 °F 45.5 °F 65% 29.87 in 10.0 mi SSE 12.7 mph - N/A   Clear
9:35 AM 59.0 °F 45.3 °F 60% 29.86 in 10.0 mi SSE 16.1 mph - N/A   Clear
9:55 AM 60.6 °F 44.1 °F 54% 29.85 in 7.0 mi SSE 19.6 mph 25.3 mph N/A   Clear
10:15 AM 60.3 °F 43.9 °F 55% 29.85 in 10.0 mi SSE 16.1 mph 25.3 mph N/A   Clear
10:35 AM 60.1 °F 43.9 °F 55% 29.86 in 10.0 mi SSE 18.4 mph 25.3 mph N/A   Clear
10:55 AM 60.8 °F 43.3 °F 53% 29.85 in 10.0 mi SSE 24.2 mph 27.6 mph N/A   Clear
11:15 AM 62.2 °F 44.1 °F 51% 29.85 in 10.0 mi SSE 24.2 mph 32.2 mph N/A   Clear
11:35 AM 63.9 °F 44.4 °F 49% 29.84 in 10.0 mi SSE 27.6 mph 34.5 mph N/A   Clear
11:55 AM 64.4 °F 44.6 °F 49% 29.84 in 10.0 mi SSE 25.3 mph 32.2 mph N/A   Clear
12:15 PM 65.3 °F 45.3 °F 48% 29.82 in 10.0 mi SSE 25.3 mph 29.9 mph N/A   Scattered Clouds
12:35 PM 64.6 °F 45.5 °F 50% 29.80 in 10.0 mi SSE 25.3 mph 28.8 mph N/A   Scattered Clouds
12:55 PM 64.8 °F 45.0 °F 49% 29.80 in 10.0 mi SSE 23.0 mph - N/A   Clear
1:15 PM 65.7 °F 46.0 °F 49% 29.79 in 10.0 mi SSE 21.9 mph 27.6 mph N/A   Clear
1:35 PM 66.4 °F 46.0 °F 48% 29.79 in 10.0 mi SSE 19.6 mph 32.2 mph N/A   Clear
1:55 PM 67.1 °F 45.7 °F 46% 29.78 in 10.0 mi SSE 29.9 mph 36.8 mph N/A   Clear
2:15 PM 67.3 °F 46.4 °F 47% 29.76 in 10.0 mi SSE 26.5 mph 31.1 mph N/A   Clear
2:35 PM 67.3 °F 46.8 °F 48% 29.75 in 10.0 mi South 29.9 mph 36.8 mph N/A   Clear
2:55 PM 66.2 °F 46.6 °F 49% 29.73 in 10.0 mi SSE 24.2 mph 31.1 mph N/A   Scattered Clouds
3:15 PM 66.2 °F 47.1 °F 50% 29.72 in 10.0 mi SSE 23.0 mph 38.0 mph N/A   Mostly Cloudy
3:35 PM 66.4 °F 47.3 °F 50% 29.72 in 10.0 mi SSE 21.9 mph 34.5 mph N/A   Overcast
3:55 PM 65.8 °F 47.7 °F 52% 29.72 in 10.0 mi SSE 19.6 mph 27.6 mph N/A   Overcast
4:15 PM 65.8 °F 48.0 °F 53% 29.72 in 10.0 mi SSE 24.2 mph 31.1 mph N/A   Overcast
4:35 PM 65.7 °F 47.8 °F 53% 29.71 in 10.0 mi SSE 19.6 mph - N/A   Overcast
4:55 PM 61.9 °F 51.6 °F 69% 29.72 in 5.0 mi South 24.2 mph 31.1 mph 0.02 in Rain Rain
5:15 PM 60.8 °F 53.1 °F 76% 29.72 in 10.0 mi South 15.0 mph - N/A Rain Light Rain
5:35 PM 58.3 °F 54.9 °F 88% 29.75 in 5.0 mi WSW 12.7 mph - 0.06 in Rain Heavy Rain
5:55 PM 55.6 °F 53.2 °F 92% 29.76 in 3.0 mi West 12.7 mph - 0.17 in Rain Heavy Rain
6:15 PM 53.1 °F 51.1 °F 93% 29.78 in 7.0 mi West 12.7 mph - 0.07 in Rain Rain
6:35 PM 52.7 °F 50.9 °F 94% 29.78 in 7.0 mi West 9.2 mph - 0.11 in Rain Heavy Rain
6:55 PM 52.7 °F 50.9 °F 94% 29.79 in 5.0 mi Calm Calm - 0.14 in Rain Rain
7:15 PM 52.7 °F 51.1 °F 94% 29.78 in 7.0 mi East 8.1 mph - 0.05 in Rain Rain
7:35 PM 52.0 °F 50.7 °F 95% 29.75 in 7.0 mi ESE 12.7 mph - 0.09 in Rain Heavy Rain
7:55 PM 51.8 °F 50.5 °F 95% 29.76 in 10.0 mi ENE 4.6 mph - 0.13 in Rain Light Rain
8:15 PM 51.8 °F 50.4 °F 95% 29.77 in 10.0 mi East 3.5 mph - N/A   Mostly Cloudy
8:35 PM 51.8 °F 50.5 °F 95% 29.77 in 10.0 mi SE 8.1 mph - N/A   Overcast
8:55 PM 52.0 °F 50.9 °F 96% 29.77 in 7.0 mi SSE 9.2 mph - 0.01 in Rain Rain
9:15 PM 52.3 °F 51.3 °F 96% 29.77 in 10.0 mi SSE 6.9 mph - 0.01 in   Drizzle
9:35 PM 52.3 °F 51.1 °F 95% 29.78 in 7.0 mi SSE 6.9 mph - 0.01 in   Drizzle
9:55 PM 52.2 °F 51.1 °F 96% 29.77 in 5.0 mi SSE 5.8 mph - 0.02 in   Drizzle
10:35 PM 52.7 °F 51.4 °F 95% 29.76 in 10.0 mi SE 10.4 mph - 0.01 in   Light Drizzle
10:55 PM 53.2 °F 52.2 °F 96% 29.75 in 7.0 mi SSE 8.1 mph - 0.01 in   Overcast
11:15 PM 53.6 °F 52.7 °F 97% 29.74 in 7.0 mi SSE 11.5 mph - N/A   Overcast
11:35 PM 53.8 °F 52.7 °F 96% 29.76 in 10.0 mi South 8.1 mph - N/A   Overcast
11:55 PM 53.4 °F 52.3 °F 96% 29.76 in 10.0 mi South 9.2 mph - N/A   Overcast
12:15 AM 53.1 °F 52.0 °F 96% 29.75 in 10.0 mi South 6.9 mph - N/A   Overcast
12:35 AM 54.3 °F 53.1 °F 95% 29.76 in 10.0 mi SSW 13.8 mph 17.3 mph N/A   Overcast
12:55 AM 54.1 °F 52.7 °F 95% 29.75 in 10.0 mi South 8.1 mph - N/A   Overcast